Time,TemperatureF,DewpointF,PressureIn,WindDirection,WindDirectionDegrees,WindSpeedMPH,WindSpeedGustMPH,Humidity,HourlyPrecipIn,Conditions,Clouds,dailyrainin,SoftwareType,DateUTC
2013-06-10 00:02:00,70.6,70.3,30.22,North,350,0.0,0.0,99,0.00,,OVC140,0.00,VWS V14.01,2013-06-10 04:02:00,
2013-06-10 00:04:00,70.6,70.3,30.22,North,350,0.0,0.0,99,0.00,,OVC140,0.00,VWS V14.01,2013-06-10 04:04:00,
2013-06-10 00:05:00,70.6,70.3,30.22,North,350,0.0,0.0,99,0.00,,OVC140,0.00,VWS V14.01,2013-06-10 04:05:00,
2013-06-10 00:12:00,70.6,70.3,30.22,North,350,0.0,0.0,99,0.00,,OVC140,0.00,VWS V14.01,2013-06-10 04:12:00,
2013-06-10 00:18:00,70.6,70.3,30.21,North,350,0.0,0.0,99,0.00,,OVC140,0.00,VWS V14.01,2013-06-10 04:18:00,
2013-06-10 00:24:00,70.4,70.1,30.21,North,350,0.0,0.0,99,0.00,,OVC140,0.00,VWS V14.01,2013-06-10 04:24:00,
2013-06-10 00:25:00,70.4,70.1,30.21,North,350,0.0,0.0,99,0.00,,OVC140,0.00,VWS V14.01,2013-06-10 04:25:00,
2013-06-10 00:30:00,70.4,70.1,30.21,North,350,0.0,0.0,99,0.00,,OVC140,0.00,VWS V14.01,2013-06-10 04:30:00,
2013-06-10 00:36:00,70.4,70.1,30.21,North,350,0.0,0.0,99,0.00,,OVC140,0.00,VWS V14.01,2013-06-10 04:36:00,
2013-06-10 00:40:00,70.6,70.3,30.21,North,350,0.0,0.0,99,0.00,,OVC140,0.00,VWS V14.01,2013-06-10 04:40:00,
2013-06-10 00:46:00,70.6,70.6,30.21,North,350,0.0,0.0,100,0.00,,OVC140,0.00,VWS V14.01,2013-06-10 04:46:00,
2013-06-10 00:53:00,70.6,70.6,30.21,North,350,0.0,0.0,100,0.00,,OVC140,0.00,VWS V14.01,2013-06-10 04:53:00,
2013-06-10 00:59:00,70.6,70.6,30.21,North,350,0.0,0.0,100,0.00,,OVC140,0.00,VWS V14.01,2013-06-10 04:59:00,
2013-06-10 01:05:00,70.8,70.8,30.21,North,350,0.0,0.0,100,0.00,,OVC140,0.00,VWS V14.01,2013-06-10 05:05:00,
2013-06-10 01:10:00,70.8,70.8,30.21,North,350,0.0,0.0,100,0.00,,OVC140,0.00,VWS V14.01,2013-06-10 05:10:00,
2013-06-10 01:15:00,70.8,70.8,30.21,North,350,0.0,0.0,100,0.00,,OVC140,0.00,VWS V14.01,2013-06-10 05:15:00,
2013-06-10 01:21:00,70.8,70.8,30.21,North,350,0.0,0.0,100,0.00,,OVC140,0.00,VWS V14.01,2013-06-10 05:21:00,
2013-06-10 01:27:00,70.8,70.8,30.21,North,350,0.0,0.0,100,0.00,,OVC140,0.00,VWS V14.01,2013-06-10 05:27:00,
2013-06-10 01:33:00,70.8,70.8,30.21,North,350,0.0,0.0,100,0.00,,OVC140,0.00,VWS V14.01,2013-06-10 05:33:00,
2013-06-10 01:39:00,70.9,70.9,30.21,NNE,28,0.0,0.0,100,0.00,,OVC140,0.00,VWS V14.01,2013-06-10 05:39:00,
2013-06-10 01:46:00,70.8,70.8,30.20,NNE,20,0.0,0.0,100,0.00,,OVC140,0.00,VWS V14.01,2013-06-10 05:46:00,
2013-06-10 01:52:00,70.8,70.8,30.20,NNE,20,0.0,0.0,100,0.00,,OVC140,0.00,VWS V14.01,2013-06-10 05:52:00,
2013-06-10 01:58:00,70.8,70.8,30.20,NNE,20,0.0,0.0,100,0.00,,OVC140,0.00,VWS V14.01,2013-06-10 05:58:00,
2013-06-10 02:04:00,70.6,70.6,30.20,NW,304,0.0,0.0,100,0.00,,OVC140,0.00,VWS V14.01,2013-06-10 06:04:00,
2013-06-10 02:10:00,70.6,70.6,30.20,NNW,340,0.0,0.0,100,0.00,,OVC140,0.00,VWS V14.01,2013-06-10 06:10:00,
2013-06-10 02:16:00,70.6,70.6,30.19,NNW,340,0.0,0.0,100,0.00,,OVC140,0.00,VWS V14.01,2013-06-10 06:16:00,
2013-06-10 02:22:00,70.6,70.6,30.19,North,352,0.0,0.0,100,0.00,,OVC140,0.00,VWS V14.01,2013-06-10 06:22:00,
2013-06-10 02:28:00,70.6,70.6,30.19,North,352,0.0,0.0,100,0.00,,OVC140,0.00,VWS V14.01,2013-06-10 06:28:00,
2013-06-10 02:34:00,70.6,70.6,30.19,North,352,0.0,0.0,100,0.00,,OVC140,0.00,VWS V14.01,2013-06-10 06:34:00,
2013-06-10 02:40:00,70.8,70.8,30.19,North,355,0.0,0.0,100,0.00,,OVC140,0.00,VWS V14.01,2013-06-10 06:40:00,
2013-06-10 02:46:00,70.9,70.9,30.19,North,355,0.0,0.0,100,0.00,,OVC140,0.00,VWS V14.01,2013-06-10 06:46:00,
2013-06-10 02:52:00,71.1,71.1,30.19,North,355,0.0,0.0,100,0.00,,OVC140,0.00,VWS V14.01,2013-06-10 06:52:00,
2013-06-10 02:58:00,71.1,71.1,30.19,NNW,335,0.0,0.0,100,0.00,,OVC140,0.00,VWS V14.01,2013-06-10 06:58:00,
2013-06-10 03:04:00,71.3,71.3,30.19,NNW,330,0.0,0.0,100,0.00,,OVC015,0.00,VWS V14.01,2013-06-10 07:04:00,
2013-06-10 03:10:00,71.3,71.3,30.19,NNW,330,0.0,0.0,100,0.00,,OVC015,0.00,VWS V14.01,2013-06-10 07:10:00,
2013-06-10 03:18:00,71.3,71.3,30.18,NNE,29,0.0,1.0,100,0.00,,OVC015,0.00,VWS V14.01,2013-06-10 07:18:00,
2013-06-10 03:24:00,71.3,71.3,30.18,NNE,23,0.0,1.0,100,0.00,,OVC015,0.00,VWS V14.01,2013-06-10 07:24:00,
2013-06-10 03:30:00,71.5,71.5,30.18,NW,321,0.0,2.0,100,0.00,,OVC015,0.00,VWS V14.01,2013-06-10 07:30:00,
2013-06-10 03:36:00,71.5,71.5,30.18,NW,321,0.0,0.0,100,0.00,,OVC015,0.00,VWS V14.01,2013-06-10 07:36:00,
2013-06-10 03:42:00,71.5,71.5,30.18,NW,321,0.0,0.0,100,0.00,,OVC015,0.00,VWS V14.01,2013-06-10 07:42:00,
2013-06-10 03:48:00,71.5,71.5,30.17,NW,323,0.0,2.0,100,0.00,,OVC015,0.00,VWS V14.01,2013-06-10 07:48:00,
2013-06-10 03:54:00,71.5,71.5,30.17,NE,46,0.0,1.0,100,0.00,,OVC015,0.00,VWS V14.01,2013-06-10 07:54:00,
2013-06-10 04:00:00,71.5,71.5,30.17,NNE,23,1.0,3.0,100,0.00,,OVC015,0.00,VWS V14.01,2013-06-10 08:00:00,
2013-06-10 04:07:00,71.5,71.5,30.17,NW,320,0.0,2.0,100,0.00,,OVC032,0.00,VWS V14.01,2013-06-10 08:07:00,
2013-06-10 04:13:00,71.5,71.5,30.17,NNW,335,0.0,0.0,100,0.00,,OVC032,0.00,VWS V14.01,2013-06-10 08:13:00,
2013-06-10 04:19:00,71.5,71.5,30.17,NNW,335,0.0,1.0,100,0.00,,OVC032,0.00,VWS V14.01,2013-06-10 08:19:00,
2013-06-10 04:25:00,71.5,71.5,30.17,NNW,335,0.0,0.0,100,0.00,,OVC032,0.00,VWS V14.01,2013-06-10 08:25:00,
2013-06-10 04:30:00,71.5,71.5,30.17,NNW,335,0.0,1.0,100,0.00,,OVC032,0.00,VWS V14.01,2013-06-10 08:30:00,
2013-06-10 04:36:00,71.5,71.5,30.17,NNW,335,0.0,0.0,100,0.00,,OVC032,0.00,VWS V14.01,2013-06-10 08:36:00,
2013-06-10 04:42:00,71.5,71.5,30.17,WNW,302,0.0,0.0,100,0.00,,OVC032,0.00,VWS V14.01,2013-06-10 08:42:00,
2013-06-10 04:48:00,71.5,71.5,30.16,NW,322,0.0,3.0,100,0.00,,OVC032,0.00,VWS V14.01,2013-06-10 08:48:00,
2013-06-10 04:54:00,71.6,71.6,30.16,NW,322,0.0,1.0,100,0.00,,OVC032,0.00,VWS V14.01,2013-06-10 08:54:00,
2013-06-10 05:00:00,71.6,71.6,30.16,NW,322,0.0,1.0,100,0.00,,OVC032,0.00,VWS V14.01,2013-06-10 09:00:00,
2013-06-10 05:06:00,71.6,71.6,30.16,NW,322,0.0,0.0,100,0.00,,OVC017,0.00,VWS V14.01,2013-06-10 09:06:00,
2013-06-10 05:12:00,71.6,71.6,30.16,NNW,342,0.0,2.0,100,0.00,,OVC017,0.00,VWS V14.01,2013-06-10 09:12:00,
2013-06-10 05:18:00,71.6,71.6,30.16,NNE,25,0.0,2.0,100,0.00,,OVC017,0.00,VWS V14.01,2013-06-10 09:18:00,
2013-06-10 05:24:00,71.6,71.6,30.16,NNE,25,0.0,0.0,100,0.00,,OVC017,0.00,VWS V14.01,2013-06-10 09:24:00,
2013-06-10 05:30:00,71.8,71.8,30.16,North,4,0.0,2.0,100,0.00,,OVC017,0.00,VWS V14.01,2013-06-10 09:30:00,
2013-06-10 05:36:00,71.8,71.8,30.16,North,5,0.0,1.0,100,0.00,,OVC017,0.00,VWS V14.01,2013-06-10 09:36:00,
2013-06-10 05:42:00,71.8,71.8,30.16,North,5,0.0,0.0,100,0.00,,OVC017,0.00,VWS V14.01,2013-06-10 09:42:00,
2013-06-10 05:48:00,71.8,71.8,30.16,North,5,0.0,0.0,100,0.00,,OVC017,0.00,VWS V14.01,2013-06-10 09:48:00,
2013-06-10 05:54:00,71.8,71.8,30.16,North,5,0.0,2.0,100,0.00,,OVC017,0.00,VWS V14.01,2013-06-10 09:54:00,
2013-06-10 06:00:00,71.8,71.8,30.16,North,5,0.0,2.0,100,0.00,,OVC017,0.00,VWS V14.01,2013-06-10 10:00:00,
2013-06-10 06:06:00,71.8,71.8,30.16,North,5,0.0,1.0,100,0.00,,OVC011,0.00,VWS V14.01,2013-06-10 10:06:00,
2013-06-10 06:12:00,71.8,71.8,30.16,North,5,0.0,0.0,100,0.00,,OVC011,0.00,VWS V14.01,2013-06-10 10:12:00,
2013-06-10 06:18:00,71.8,71.8,30.16,North,5,0.0,0.0,100,0.00,,OVC011,0.00,VWS V14.01,2013-06-10 10:18:00,
2013-06-10 06:24:00,71.8,71.8,30.16,North,5,0.0,0.0,100,0.00,,OVC011,0.00,VWS V14.01,2013-06-10 10:24:00,
2013-06-10 06:30:00,71.8,71.8,30.16,North,5,0.0,1.0,100,0.00,,OVC011,0.00,VWS V14.01,2013-06-10 10:30:00,
2013-06-10 06:36:00,71.8,71.8,30.16,North,5,0.0,1.0,100,0.00,,OVC011,0.00,VWS V14.01,2013-06-10 10:36:00,
2013-06-10 06:42:00,72.0,72.0,30.16,North,5,0.0,0.0,100,0.00,,OVC011,0.00,VWS V14.01,2013-06-10 10:42:00,
2013-06-10 06:48:00,72.0,72.0,30.16,ESE,117,0.0,1.0,100,0.00,,OVC011,0.00,VWS V14.01,2013-06-10 10:48:00,
2013-06-10 06:54:00,72.0,72.0,30.16,ESE,117,0.0,1.0,100,0.00,,OVC011,0.00,VWS V14.01,2013-06-10 10:54:00,
2013-06-10 07:00:00,72.1,72.1,30.16,North,1,0.0,1.0,100,0.00,,OVC011,0.00,VWS V14.01,2013-06-10 11:00:00,
2013-06-10 07:07:00,72.1,72.1,30.16,North,1,0.0,1.0,100,0.00,,BKN150,0.00,VWS V14.01,2013-06-10 11:07:00,
2013-06-10 07:13:00,72.1,72.1,30.16,North,1,0.0,0.0,100,0.00,,BKN150,0.00,VWS V14.01,2013-06-10 11:13:00,
2013-06-10 07:19:00,72.3,72.3,30.16,North,1,0.0,2.0,100,0.00,,BKN150,0.00,VWS V14.01,2013-06-10 11:19:00,
2013-06-10 07:25:00,72.3,72.3,30.16,North,1,0.0,0.0,100,0.00,,BKN150,0.00,VWS V14.01,2013-06-10 11:25:00,
2013-06-10 07:30:00,72.5,72.5,30.16,North,1,0.0,1.0,100,0.00,,BKN150,0.00,VWS V14.01,2013-06-10 11:30:00,
2013-06-10 07:36:00,72.5,72.5,30.16,East,89,0.0,1.0,100,0.00,,BKN150,0.00,VWS V14.01,2013-06-10 11:36:00,
2013-06-10 07:42:00,72.7,72.7,30.16,East,87,0.0,0.0,100,0.00,,BKN150,0.00,VWS V14.01,2013-06-10 11:42:00,
2013-06-10 07:48:00,72.7,72.7,30.16,WNW,297,0.0,3.0,100,0.00,,BKN150,0.00,VWS V14.01,2013-06-10 11:48:00,
2013-06-10 07:54:00,72.8,72.8,30.16,North,349,0.0,1.0,100,0.00,,BKN150,0.00,VWS V14.01,2013-06-10 11:54:00,
2013-06-10 08:00:00,72.8,72.8,30.16,North,351,0.0,2.0,100,0.00,,BKN150,0.00,VWS V14.01,2013-06-10 12:00:00,
2013-06-10 08:06:00,73.0,73.0,30.16,NNE,31,2.0,2.0,100,0.00,,OVC025,0.00,VWS V14.01,2013-06-10 12:06:00,
2013-06-10 08:12:00,73.0,73.0,30.16,NNW,333,0.0,1.0,100,0.00,,OVC025,0.00,VWS V14.01,2013-06-10 12:12:00,
2013-06-10 08:18:00,73.0,73.0,30.16,NNW,333,0.0,1.0,100,0.00,,OVC025,0.00,VWS V14.01,2013-06-10 12:18:00,
2013-06-10 08:24:00,73.2,73.2,30.16,NNW,333,0.0,1.0,100,0.00,,OVC025,0.00,VWS V14.01,2013-06-10 12:24:00,
2013-06-10 08:30:00,73.2,73.2,30.16,NE,39,3.0,4.0,100,0.00,,OVC025,0.00,VWS V14.01,2013-06-10 12:30:00,
2013-06-10 08:36:00,73.3,73.3,30.16,NE,40,1.0,3.0,100,0.00,,OVC025,0.00,VWS V14.01,2013-06-10 12:36:00,
2013-06-10 08:43:00,73.7,73.7,30.16,North,0,0.0,2.0,100,0.00,,OVC025,0.00,VWS V14.01,2013-06-10 12:43:00,
2013-06-10 08:49:00,73.9,73.9,30.16,North,0,0.0,3.0,100,0.00,,OVC025,0.00,VWS V14.01,2013-06-10 12:49:00,
2013-06-10 08:55:00,74.0,74.0,30.16,North,0,0.0,0.0,100,0.00,,OVC025,0.00,VWS V14.01,2013-06-10 12:55:00,
2013-06-10 09:00:00,74.4,74.4,30.16,North,0,0.0,1.0,100,0.00,,OVC025,0.00,VWS V14.01,2013-06-10 13:00:00,
2013-06-10 09:05:00,74.4,74.4,30.16,SSE,151,1.0,7.0,100,0.00,,OVC180,0.00,VWS V14.01,2013-06-10 13:05:00,
2013-06-10 09:11:00,74.2,74.2,30.16,SSE,151,0.0,1.0,100,0.00,,OVC180,0.00,VWS V14.01,2013-06-10 13:11:00,
2013-06-10 09:17:00,74.2,74.2,30.16,SW,217,2.0,2.0,100,0.00,,OVC180,0.00,VWS V14.01,2013-06-10 13:17:00,
2013-06-10 09:23:00,74.2,74.2,30.16,SW,217,0.0,0.0,100,0.00,,OVC180,0.00,VWS V14.01,2013-06-10 13:23:00,
2013-06-10 09:29:00,74.2,73.9,30.16,SE,134,1.0,2.0,99,0.00,,OVC180,0.00,VWS V14.01,2013-06-10 13:29:00,
2013-06-10 09:36:00,74.6,74.3,30.16,SE,134,0.0,0.0,99,0.00,,OVC180,0.00,VWS V14.01,2013-06-10 13:36:00,
2013-06-10 09:42:00,74.7,74.4,30.16,SSW,205,0.0,2.0,99,0.00,,OVC180,0.00,VWS V14.01,2013-06-10 13:42:00,
2013-06-10 09:48:00,75.1,74.2,30.16,North,4,0.0,2.0,97,0.00,,OVC180,0.00,VWS V14.01,2013-06-10 13:48:00,
2013-06-10 09:54:00,75.1,73.9,30.16,North,3,0.0,1.0,96,0.00,,OVC180,0.00,VWS V14.01,2013-06-10 13:54:00,
2013-06-10 10:00:00,74.9,73.1,30.15,SSW,211,0.0,2.0,94,0.00,,OVC180,0.00,VWS V14.01,2013-06-10 14:00:00,
2013-06-10 10:06:00,74.9,73.1,30.15,SSW,206,0.0,0.0,94,0.00,,-RA,0.00,VWS V14.01,2013-06-10 14:06:00,
2013-06-10 10:12:00,74.9,73.4,30.15,NNW,345,0.0,1.0,95,0.00,,-RA,0.00,VWS V14.01,2013-06-10 14:12:00,
2013-06-10 10:18:00,74.9,73.4,30.15,North,354,0.0,2.0,95,0.00,,-RA,0.00,VWS V14.01,2013-06-10 14:18:00,
2013-06-10 10:24:00,74.9,73.4,30.15,North,354,0.0,0.0,95,0.00,,-RA,0.00,VWS V14.01,2013-06-10 14:24:00,
2013-06-10 10:30:00,75.3,73.5,30.16,WSW,243,0.0,3.0,94,0.00,,-RA,0.00,VWS V14.01,2013-06-10 14:30:00,
2013-06-10 10:36:00,75.6,73.4,30.16,SW,236,0.0,1.0,93,0.00,,-RA,0.00,VWS V14.01,2013-06-10 14:36:00,
2013-06-10 10:42:00,75.6,73.1,30.16,West,259,0.0,0.0,92,0.00,,-RA,0.00,VWS V14.01,2013-06-10 14:42:00,
2013-06-10 10:48:00,75.8,73.0,30.15,NE,40,0.0,3.0,91,0.00,,-RA,0.00,VWS V14.01,2013-06-10 14:48:00,
2013-06-10 10:54:00,76.1,73.3,30.15,NE,37,0.0,2.0,91,0.00,,-RA,0.00,VWS V14.01,2013-06-10 14:54:00,
2013-06-10 11:00:00,76.5,73.0,30.15,West,269,0.0,2.0,89,0.00,,-RA,0.00,VWS V14.01,2013-06-10 15:00:00,
2013-06-10 11:06:00,76.8,73.3,30.15,West,269,0.0,1.0,89,0.00,,OVC250,0.00,VWS V14.01,2013-06-10 15:06:00,
2013-06-10 11:12:00,77.6,73.1,30.15,SSW,203,0.0,2.0,86,0.00,,OVC250,0.00,VWS V14.01,2013-06-10 15:12:00,
2013-06-10 11:18:00,78.3,73.1,30.15,WNW,288,0.0,4.0,84,0.00,,OVC250,0.00,VWS V14.01,2013-06-10 15:18:00,
2013-06-10 11:24:00,78.5,72.9,30.15,West,264,1.0,2.0,83,0.00,,OVC250,0.00,VWS V14.01,2013-06-10 15:24:00,
2013-06-10 11:30:00,78.5,73.3,30.15,NNW,345,5.0,5.0,84,0.00,,OVC250,0.00,VWS V14.01,2013-06-10 15:30:00,
2013-06-10 11:37:00,78.3,72.7,30.15,SE,144,0.0,5.0,83,0.00,,OVC250,0.00,VWS V14.01,2013-06-10 15:37:00,
2013-06-10 11:43:00,78.5,71.8,30.15,WNW,295,1.0,3.0,80,0.00,,OVC250,0.00,VWS V14.01,2013-06-10 15:43:00,
2013-06-10 11:49:00,79.0,71.9,30.14,WSW,253,1.0,5.0,79,0.00,,OVC250,0.00,VWS V14.01,2013-06-10 15:49:00,
2013-06-10 11:55:00,78.8,71.4,30.14,NE,51,1.0,4.0,78,0.00,,OVC250,0.00,VWS V14.01,2013-06-10 15:55:00,
2013-06-10 12:00:00,78.6,71.6,30.13,West,281,0.0,5.0,79,0.00,,OVC250,0.00,VWS V14.01,2013-06-10 16:00:00,
2013-06-10 12:06:00,78.3,71.3,30.13,WNW,299,0.0,3.0,79,0.00,,,0.00,VWS V14.01,2013-06-10 16:06:00,
2013-06-10 12:12:00,76.7,71.5,30.13,WNW,300,2.0,5.0,84,0.00,,,0.00,VWS V14.01,2013-06-10 16:12:00,
2013-06-10 12:18:00,73.0,69.2,30.15,WNW,302,0.0,9.0,88,0.00,,,0.00,VWS V14.01,2013-06-10 16:18:00,
2013-06-10 12:24:00,71.6,69.2,30.15,SW,221,0.0,3.0,92,0.00,,,0.00,VWS V14.01,2013-06-10 16:24:00,
2013-06-10 12:30:00,71.3,69.8,30.14,SW,225,0.0,3.0,95,0.00,,,0.00,VWS V14.01,2013-06-10 16:30:00,
2013-06-10 12:38:00,71.3,70.4,30.14,SW,225,0.0,0.0,97,0.00,,,0.00,VWS V14.01,2013-06-10 16:38:00,
2013-06-10 12:44:00,71.3,70.4,30.14,SW,225,0.0,1.0,97,0.00,,,0.00,VWS V14.01,2013-06-10 16:44:00,
2013-06-10 12:50:00,71.8,71.2,30.14,SW,225,0.0,3.0,98,0.00,,,0.00,VWS V14.01,2013-06-10 16:50:00,
2013-06-10 12:56:00,72.1,71.8,30.14,SW,225,0.0,1.0,99,0.00,,,0.00,VWS V14.01,2013-06-10 16:56:00,
2013-06-10 13:02:00,72.3,72.0,30.12,SW,225,0.0,1.0,99,0.00,,OVC150,0.00,VWS V14.01,2013-06-10 17:02:00,
2013-06-10 13:08:00,72.3,72.0,30.12,SW,225,0.0,1.0,99,0.00,,OVC150,0.00,VWS V14.01,2013-06-10 17:08:00,
2013-06-10 13:14:00,72.3,72.0,30.12,SW,225,0.0,0.0,99,0.00,,OVC150,0.00,VWS V14.01,2013-06-10 17:14:00,
2013-06-10 13:20:00,72.7,72.7,30.13,North,5,0.0,1.0,100,0.00,,OVC150,0.00,VWS V14.01,2013-06-10 17:20:00,
2013-06-10 13:26:00,72.7,72.7,30.13,North,354,0.0,2.0,100,0.00,,OVC150,0.00,VWS V14.01,2013-06-10 17:26:00,
2013-06-10 13:33:00,73.2,73.2,30.11,North,0,0.0,1.0,100,0.00,,OVC150,0.00,VWS V14.01,2013-06-10 17:33:00,
2013-06-10 13:39:00,73.9,73.9,30.11,North,0,0.0,1.0,100,0.00,,OVC150,0.00,VWS V14.01,2013-06-10 17:39:00,
2013-06-10 13:45:00,74.0,73.7,30.10,NW,322,0.0,3.0,99,0.00,,OVC150,0.00,VWS V14.01,2013-06-10 17:45:00,
2013-06-10 13:50:00,73.9,73.6,30.10,North,0,0.0,3.0,99,0.00,,OVC150,0.00,VWS V14.01,2013-06-10 17:50:00,
2013-06-10 13:55:00,73.9,73.6,30.10,North,358,0.0,2.0,99,0.00,,OVC150,0.00,VWS V14.01,2013-06-10 17:55:00,
2013-06-10 14:01:00,73.7,73.1,30.10,North,358,0.0,0.0,98,0.00,,,0.00,VWS V14.01,2013-06-10 18:01:00,
2013-06-10 14:08:00,73.7,73.4,30.10,North,358,0.0,1.0,99,0.00,,,0.00,VWS V14.01,2013-06-10 18:08:00,
2013-06-10 14:14:00,73.7,73.4,30.10,North,358,0.0,1.0,99,0.00,,,0.00,VWS V14.01,2013-06-10 18:14:00,
2013-06-10 14:20:00,73.9,73.9,30.09,North,358,0.0,1.0,100,0.00,,,0.00,VWS V14.01,2013-06-10 18:20:00,
2013-06-10 14:26:00,74.0,74.0,30.09,North,358,0.0,0.0,100,0.00,,,0.00,VWS V14.01,2013-06-10 18:26:00,
2013-06-10 14:34:00,74.4,74.4,30.07,North,358,0.0,0.0,100,0.00,,,0.00,VWS V14.01,2013-06-10 18:34:00,
2013-06-10 14:40:00,74.7,74.7,30.07,North,358,0.0,0.0,100,0.00,,,0.00,VWS V14.01,2013-06-10 18:40:00,
2013-06-10 14:46:00,75.6,75.6,30.06,North,358,0.0,1.0,100,0.00,,,0.00,VWS V14.01,2013-06-10 18:46:00,
2013-06-10 14:53:00,76.5,76.5,30.06,North,356,0.0,3.0,100,0.00,,,0.00,VWS V14.01,2013-06-10 18:53:00,
2013-06-10 14:59:00,77.2,77.2,30.05,North,358,0.0,3.0,100,0.00,,,0.00,VWS V14.01,2013-06-10 18:59:00,
2013-06-10 15:06:00,77.9,77.9,30.05,SW,229,0.0,4.0,100,0.00,,,0.00,VWS V14.01,2013-06-10 19:06:00,
2013-06-10 15:12:00,78.6,78.3,30.05,WNW,302,0.0,3.0,99,0.00,,,0.00,VWS V14.01,2013-06-10 19:12:00,
2013-06-10 15:18:00,79.0,77.8,30.05,North,354,0.0,3.0,96,0.00,,,0.00,VWS V14.01,2013-06-10 19:18:00,
2013-06-10 15:24:00,79.2,77.0,30.05,NNE,13,0.0,2.0,93,0.00,,,0.00,VWS V14.01,2013-06-10 19:24:00,
2013-06-10 15:30:00,79.4,76.2,30.05,SSW,195,0.0,4.0,90,0.00,,,0.00,VWS V14.01,2013-06-10 19:30:00,
2013-06-10 15:38:00,79.8,75.9,30.05,North,354,0.0,3.0,88,0.00,,,0.00,VWS V14.01,2013-06-10 19:38:00,
2013-06-10 15:44:00,80.1,75.5,30.05,NNE,27,0.0,4.0,86,0.00,,,0.00,VWS V14.01,2013-06-10 19:44:00,
2013-06-10 15:50:00,80.9,74.9,30.05,NW,314,0.0,4.0,82,0.00,,,0.00,VWS V14.01,2013-06-10 19:50:00,
2013-06-10 15:56:00,81.4,75.0,30.05,SW,227,1.0,3.0,81,0.00,,,0.00,VWS V14.01,2013-06-10 19:56:00,
2013-06-10 16:02:00,81.8,74.7,30.03,NE,47,1.0,2.0,79,0.00,,SCT045,0.00,VWS V14.01,2013-06-10 20:02:00,
2013-06-10 16:08:00,82.2,75.0,30.03,NW,325,0.0,4.0,79,0.00,,SCT045,0.00,VWS V14.01,2013-06-10 20:08:00,
2013-06-10 16:14:00,82.4,74.9,30.03,NNE,15,3.0,5.0,78,0.00,,SCT045,0.00,VWS V14.01,2013-06-10 20:14:00,
2013-06-10 16:20:00,82.6,73.9,30.03,ENE,76,5.0,5.0,75,0.00,,SCT045,0.00,VWS V14.01,2013-06-10 20:20:00,
2013-06-10 16:26:00,82.8,74.5,30.03,NNW,336,0.0,5.0,76,0.00,,SCT045,0.00,VWS V14.01,2013-06-10 20:26:00,
2013-06-10 16:33:00,83.0,74.7,30.02,NNW,337,1.0,1.0,76,0.00,,SCT045,0.00,VWS V14.01,2013-06-10 20:33:00,
2013-06-10 16:39:00,82.8,74.1,30.02,West,267,1.0,3.0,75,0.00,,SCT045,0.00,VWS V14.01,2013-06-10 20:39:00,
2013-06-10 16:45:00,82.8,73.7,30.02,NW,324,0.0,6.0,74,0.00,,SCT045,0.00,VWS V14.01,2013-06-10 20:45:00,
2013-06-10 16:50:00,83.0,73.9,30.02,WNW,295,2.0,6.0,74,0.00,,SCT045,0.00,VWS V14.01,2013-06-10 20:50:00,
2013-06-10 16:55:00,82.4,74.1,30.02,North,0,1.0,4.0,76,0.00,,SCT045,0.00,VWS V14.01,2013-06-10 20:55:00,
2013-06-10 17:01:00,81.4,73.5,30.02,WSW,238,0.0,3.0,77,0.00,,BKN045,0.00,VWS V14.01,2013-06-10 21:01:00,
2013-06-10 17:08:00,80.7,73.2,30.02,NE,36,0.0,5.0,78,0.00,,BKN045,0.00,VWS V14.01,2013-06-10 21:08:00,
2013-06-10 17:14:00,80.3,73.6,30.02,SW,222,0.0,4.0,80,0.00,,BKN045,0.00,VWS V14.01,2013-06-10 21:14:00,
2013-06-10 17:20:00,79.8,73.4,30.02,WNW,286,0.0,4.0,81,0.00,,BKN045,0.00,VWS V14.01,2013-06-10 21:20:00,
2013-06-10 17:28:00,78.8,73.6,30.02,West,274,2.0,6.0,84,0.00,,BKN045,0.00,VWS V14.01,2013-06-10 21:28:00,
2013-06-10 17:34:00,76.7,72.9,30.04,NE,35,0.0,4.0,88,0.00,,BKN045,0.00,VWS V14.01,2013-06-10 21:34:00,
2013-06-10 17:40:00,75.1,72.6,30.04,North,358,4.0,4.0,92,0.00,,BKN045,0.00,VWS V14.01,2013-06-10 21:40:00,
2013-06-10 17:46:00,74.4,72.6,30.04,NNE,32,0.0,2.0,94,0.00,,BKN045,0.00,VWS V14.01,2013-06-10 21:46:00,
2013-06-10 17:52:00,74.0,72.8,30.04,WSW,256,0.0,0.0,96,0.00,,BKN045,0.00,VWS V14.01,2013-06-10 21:52:00,
2013-06-10 17:58:00,74.0,73.1,30.04,WSW,256,0.0,2.0,97,0.00,,BKN045,0.00,VWS V14.01,2013-06-10 21:58:00,
2013-06-10 18:04:00,74.2,73.6,30.03,WSW,256,0.0,0.0,98,0.00,,-RA,0.00,VWS V14.01,2013-06-10 22:04:00,
2013-06-10 18:10:00,74.6,74.0,30.03,WSW,256,0.0,1.0,98,0.00,,-RA,0.00,VWS V14.01,2013-06-10 22:10:00,
2013-06-10 18:16:00,74.7,74.4,30.04,WSW,256,0.0,1.0,99,0.00,,-RA,0.00,VWS V14.01,2013-06-10 22:16:00,
2013-06-10 18:22:00,74.9,74.6,30.04,WSW,256,0.0,0.0,99,0.00,,-RA,0.00,VWS V14.01,2013-06-10 22:22:00,
2013-06-10 18:28:00,75.1,74.8,30.04,NNW,333,0.0,2.0,99,0.00,,-RA,0.00,VWS V14.01,2013-06-10 22:28:00,
2013-06-10 18:34:00,74.7,74.4,30.04,NNE,20,0.0,2.0,99,0.00,,-RA,0.00,VWS V14.01,2013-06-10 22:34:00,
2013-06-10 18:40:00,74.7,74.4,30.04,NNE,20,0.0,2.0,99,0.00,,-RA,0.00,VWS V14.01,2013-06-10 22:40:00,
2013-06-10 18:47:00,74.6,74.3,30.04,NNE,20,0.0,1.0,99,0.00,,-RA,0.00,VWS V14.01,2013-06-10 22:47:00,
2013-06-10 18:53:00,74.2,73.9,30.04,NW,325,0.0,1.0,99,0.00,,-RA,0.00,VWS V14.01,2013-06-10 22:53:00,
2013-06-10 18:59:00,73.9,73.3,30.04,NNW,328,0.0,2.0,98,0.00,,-RA,0.00,VWS V14.01,2013-06-10 22:59:00,
2013-06-10 19:05:00,73.7,73.4,30.05,NNW,346,0.0,1.0,99,0.00,,BKN130,0.00,VWS V14.01,2013-06-10 23:05:00,
2013-06-10 19:10:00,73.7,73.4,30.05,NNW,346,0.0,1.0,99,0.00,,BKN130,0.00,VWS V14.01,2013-06-10 23:10:00,
2013-06-10 19:16:00,73.5,73.2,30.04,North,354,0.0,1.0,99,0.00,,BKN130,0.00,VWS V14.01,2013-06-10 23:16:00,
2013-06-10 19:22:00,73.3,73.0,30.04,North,354,0.0,0.0,99,0.00,,BKN130,0.00,VWS V14.01,2013-06-10 23:22:00,
2013-06-10 19:28:00,73.3,73.0,30.04,North,354,0.0,0.0,99,0.00,,BKN130,0.00,VWS V14.01,2013-06-10 23:28:00,
2013-06-10 19:34:00,73.0,72.7,30.05,NNW,345,0.0,4.0,99,0.00,,BKN130,0.00,VWS V14.01,2013-06-10 23:34:00,
2013-06-10 19:40:00,72.8,72.5,30.05,North,0,0.0,4.0,99,0.00,,BKN130,0.00,VWS V14.01,2013-06-10 23:40:00,
2013-06-10 19:46:00,72.7,72.4,30.04,SSW,207,0.0,3.0,99,0.00,,BKN130,0.00,VWS V14.01,2013-06-10 23:46:00,
2013-06-10 19:52:00,72.5,72.2,30.04,SSW,210,0.0,0.0,99,0.00,,BKN130,0.00,VWS V14.01,2013-06-10 23:52:00,
2013-06-10 19:58:00,72.5,72.5,30.04,SSW,210,0.0,2.0,100,0.00,,BKN130,0.00,VWS V14.01,2013-06-10 23:58:00,
2013-06-10 20:04:00,72.3,72.3,30.05,SSE,154,0.0,7.0,100,0.00,,BKN120,0.00,VWS V14.01,2013-06-11 00:04:00,
2013-06-10 20:10:00,72.1,72.1,30.05,NNW,347,0.0,7.0,100,0.00,,BKN120,0.00,VWS V14.01,2013-06-11 00:10:00,
2013-06-10 20:17:00,72.1,72.1,30.04,WNW,298,0.0,5.0,100,0.00,,BKN120,0.00,VWS V14.01,2013-06-11 00:17:00,
2013-06-10 20:23:00,72.1,72.1,30.04,NW,314,1.0,2.0,100,0.00,,BKN120,0.00,VWS V14.01,2013-06-11 00:23:00,
2013-06-10 20:29:00,72.0,72.0,30.04,SSW,194,0.0,2.0,100,0.00,,BKN120,0.00,VWS V14.01,2013-06-11 00:29:00,
2013-06-10 20:35:00,72.0,72.0,30.04,SSW,195,1.0,3.0,100,0.00,,BKN120,0.00,VWS V14.01,2013-06-11 00:35:00,
2013-06-10 20:40:00,72.0,72.0,30.04,West,260,0.0,3.0,100,0.00,,BKN120,0.00,VWS V14.01,2013-06-11 00:40:00,
2013-06-10 20:46:00,71.8,71.8,30.04,NW,309,0.0,4.0,100,0.00,,BKN120,0.00,VWS V14.01,2013-06-11 00:46:00,
2013-06-10 20:52:00,71.8,71.8,30.04,East,99,0.0,0.0,100,0.00,,BKN120,0.00,VWS V14.01,2013-06-11 00:52:00,
2013-06-10 20:58:00,71.8,71.8,30.04,East,83,1.0,1.0,100,0.00,,BKN120,0.00,VWS V14.01,2013-06-11 00:58:00,
2013-06-10 21:04:00,71.6,71.6,30.04,East,81,0.0,1.0,100,0.00,,BKN180,0.00,VWS V14.01,2013-06-11 01:04:00,
2013-06-10 21:10:00,71.6,71.6,30.04,NNE,13,0.0,1.0,100,0.00,,BKN180,0.00,VWS V14.01,2013-06-11 01:10:00,
2013-06-10 21:16:00,71.5,71.5,30.04,NNE,14,1.0,2.0,100,0.00,,BKN180,0.00,VWS V14.01,2013-06-11 01:16:00,
2013-06-10 21:22:00,71.5,71.5,30.04,NNE,14,0.0,0.0,100,0.00,,BKN180,0.00,VWS V14.01,2013-06-11 01:22:00,
2013-06-10 21:28:00,71.3,71.3,30.04,North,358,0.0,2.0,100,0.00,,BKN180,0.00,VWS V14.01,2013-06-11 01:28:00,
2013-06-10 21:34:00,71.3,71.3,30.04,NW,315,0.0,2.0,100,0.00,,BKN180,0.00,VWS V14.01,2013-06-11 01:34:00,
2013-06-10 21:40:00,71.1,71.1,30.04,NW,321,0.0,2.0,100,0.00,,BKN180,0.00,VWS V14.01,2013-06-11 01:40:00,
2013-06-10 21:47:00,71.1,71.1,30.04,NW,321,0.0,1.0,100,0.00,,BKN180,0.00,VWS V14.01,2013-06-11 01:47:00,
2013-06-10 21:53:00,71.1,71.1,30.04,NW,324,1.0,1.0,100,0.00,,BKN180,0.00,VWS V14.01,2013-06-11 01:53:00,
2013-06-10 21:59:00,71.1,71.1,30.04,NNW,332,0.0,1.0,100,0.00,,BKN180,0.00,VWS V14.01,2013-06-11 01:59:00,
2013-06-10 22:05:00,71.1,71.1,30.05,NNW,332,0.0,0.0,100,0.00,,BKN180,0.00,VWS V14.01,2013-06-11 02:05:00,
2013-06-10 22:10:00,71.1,71.1,30.05,NNW,332,0.0,0.0,100,0.00,,BKN180,0.00,VWS V14.01,2013-06-11 02:10:00,
2013-06-10 22:16:00,71.1,71.1,30.05,WNW,299,0.0,1.0,100,0.00,,BKN180,0.00,VWS V14.01,2013-06-11 02:16:00,
2013-06-10 22:22:00,71.1,71.1,30.05,WNW,299,0.0,0.0,100,0.00,,BKN180,0.00,VWS V14.01,2013-06-11 02:22:00,
2013-06-10 22:28:00,71.1,71.1,30.05,WNW,300,0.0,0.0,100,0.00,,BKN180,0.00,VWS V14.01,2013-06-11 02:28:00,